Theta_e
305 304 303 303 302 301 300 300 300 301 302 302 302 303 305 305 306 297 295 300 305 301 304 308 308 304 304 302 298 301 302 304 299 295 294 294 293 295 294 296 297 296 293 292 292 288 290 308 307 298 300 303 306 305
304 303 303 302 302 301 300 299 299 301 302 302 302 303 305 305 305 302 296 302 303 300 299 306 304 306 311 309 303 303 301 303 307 297 296 295 295 293 292 289 298 295 298 296 296 296 302 305 303 305 306 307 306 305
303 303 303 303 302 301 300 300 299 301 302 302 302 302 304 304 305 302 292 295 299 295 293 293 296 301 311 310 308 300 304 307 306 307 302 300 297 296 292 293 294 298 303 298 297 299 303 305 309 309 310 307 309 309
304 304 303 303 303 302 300 300 300 301 302 302 301 302 304 304 304 303 291 295 299 297 291 293 305 303 310 311 310 310 308 306 305 301 297 296 295 297 294 296 294 298 298 300 298 301 305 308 310 310 311 312 310 310
304 304 304 303 303 302 302 301 301 302 302 302 301 302 303 303 304 297 293 294 299 298 293 296 300 302 305 306 306 306 304 300 298 298 295 294 295 294 293 294 292 299 298 296 296 300 302 303 306 309 305 305 307 306
303 304 304 304 303 303 302 302 302 302 302 301 301 302 302 303 303 296 291 299 298 298 293 290 297 298 300 301 301 303 303 301 297 295 294 295 296 295 291 289 295 298 302 301 299 303 302 304 306 307 305 306 308 307
303 304 304 304 304 303 303 303 303 303 303 302 302 302 303 303 292 294 290 296 301 297 293 288 288 296 300 297 297 297 300 299 297 294 293 293 294 295 290 289 296 301 301 302 302 304 300 302 303 307 308 308 309 307
302 304 304 304 304 304 303 303 303 303 302 302 302 302 303 304 297 290 296 303 299 297 296 288 289 293 297 293 292 294 294 295 295 295 294 294 294 292 288 294 297 300 302 304 304 302 302 304 304 305 305 305 304 304
301 301 303 303 304 305 304 303 303 302 302 302 302 303 296 291 290 295 308 305 299 297 290 290 288 287 296 293 294 294 294 291 293 291 291 293 290 290 293 295 298 300 301 302 303 303 303 303 303 303 303 304 304 304
302 302 303 304 304 304 304 303 302 303 302 302 297 295 290 295 305 303 293 290 289 290 292 290 292 290 294 292 292 292 293 290 289 292 293 289 288 293 296 299 299 302 302 303 300 299 300 300 301 303 304 305 306 306
302 302 303 304 303 303 303 303 303 303 301 295 293 293 297 306 297 294 287 285 285 285 286 289 290 290 294 292 291 294 292 292 289 292 291 288 288 293 297 298 300 302 305 303 303 302 301 302 303 304 305 307 307 307
302 302 303 303 303 303 303 303 303 297 295 295 295 297 298 296 293 288 282 286 285 284 287 286 287 290 291 294 292 291 291 290 287 293 291 286 293 297 299 299 302 302 303 301 302 303 304 305 306 305 305 306 306 306
302 302 302 303 303 303 302 302 302 303 301 299 296 293 290 289 282 281 281 283 283 286 288 289 289 292 291 291 289 288 288 286 290 285 284 289 297 301 302 302 301 301 301 302 303 304 306 307 307 305 305 306 307 307
301 301 301 302 303 303 302 302 302 300 296 289 287 279 282 280 284 284 285 286 289 292 291 290 290 291 291 289 288 286 288 288 284 281 284 288 295 299 301 302 301 299 301 303 303 303 304 304 304 306 307 307 307 306
301 301 301 301 303 302 303 302 302 298 293 287 287 279 283 287 288 289 290 290 293 294 293 291 292 291 290 290 288 287 285 283 284 283 287 295 298 299 299 298 298 298 300 301 301 302 302 302 302 303 306 305 306 307
300 300 299 302 302 302 301 299 297 296 292 289 286 284 287 286 287 287 288 288 293 293 295 294 291 289 289 290 288 285 284 283 289 292 295 296 296 296 296 297 297 298 299 299 300 298 299 302 302 301 305 305 305 305
299 294 301 301 301 301 301 294 293 292 289 285 285 288 287 286 286 288 290 290 294 293 290 290 288 288 292 288 288 290 287 290 292 294 295 297 298 300 301 302 303 301 298 299 300 298 296 298 298 301 302 302 304 303
295 298 301 300 299 298 296 294 291 288 284 286 284 286 287 288 288 289 291 292 293 293 292 290 293 289 287 287 286 291 293 295 294 294 297 297 300 304 304 302 303 303 301 300 301 298 295 294 292 293 296 300 301 299
298 299 300 301 298 293 290 291 292 284 286 287 286 285 285 286 289 291 291 293 294 296 294 291 287 286 288 293 291 291 291 292 292 292 294 299 300 302 304 305 306 304 302 301 297 295 293 292 295 294 299 300 298 297
300 300 301 300 299 292 290 290 292 285 284 286 286 285 285 286 287 288 288 290 291 290 288 288 288 290 291 293 295 294 293 294 292 290 290 296 301 302 300 300 299 300 295 293 294 292 292 296 299 300 300 298 297 297
297 298 299 296 295 293 290 287 286 286 285 283 285 285 284 285 284 285 285 287 286 284 284 288 289 292 294 294 294 293 292 292 292 292 290 289 295 298 297 297 299 299 298 297 292 293 294 295 299 300 298 297 296 297
293 299 293 294 290 292 288 289 286 286 283 283 283 283 282 282 283 284 286 284 283 285 286 286 288 289 291 289 291 291 293 292 291 291 292 291 290 293 297 297 297 297 298 297 296 293 292 298 300 300 298 297 298 301
297 295 292 293 286 281 281 287 283 283 281 282 283 282 283 283 284 287 283 284 286 288 288 287 288 288 289 290 290 290 291 290 290 290 292 293 292 292 292 293 293 294 295 293 292 292 291 294 297 298 297 298 297 295
298 290 286 285 283 279 287 283 283 282 283 282 281 281 282 283 286 283 282 283 287 290 289 290 290 289 289 289 289 290 291 292 291 291 292 292 291 292 294 294 295 295 295 295 292 293 295 297 296 297 297 296 296 295
280 280 280 272 284 283 282 283 283 282 282 283 283 283 285 286 283 283 282 289 291 287 288 289 288 288 286 287 288 289 291 291 290 291 293 293 291 291 291 292 294 294 295 293 292 294 296 297 300 297 297 297 296 296
276 284 281 285 284 283 283 283 285 284 284 283 284 286 285 283 282 282 287 293 292 292 291 289 288 289 288 288 288 289 290 291 290 289 291 292 294 293 293 292 291 292 294 295 293 295 297 298 298 297 297 296 290 297
276 282 284 288 287 287 285 286 286 284 283 283 282 284 282 281 282 288 293 293 292 292 292 293 291 290 289 290 292 293 294 295 294 294 294 292 293 294 294 293 293 295 296 295 294 297 298 299 299 299 299 298 298 299
284 284 282 284 285 286 285 284 284 285 287 289 286 281 281 282 283 291 291 294 294 294 292 294 294 293 293 293 294 294 294 295 296 297 297 296 295 295 295 296 297 293 297 298 297 296 297 299 300 300 300 299 300 302
284 286 287 286 287 286 286 285 286 290 292 287 285 285 286 289 292 292 294 294 293 292 289 289 290 292 292 293 294 294 295 295 293 291 291 291 292 293 295 296 296 297 298 297 290 290 297 299 300 301 301 301 303 305
286 289 286 286 286 284 289 293 291 294 294 293 292 291 291 292 295 296 294 292 289 287 287 288 289 290 291 291 292 295 297 298 298 296 293 293 294 296 295 296 297 297 297 297 297 297 286 295 293 300 301 302 303 304
291 290 288 287 286 291 294 296 296 296 295 293 293 290 288 290 293 295 294 292 290 288 288 289 291 293 294 295 296 297 297 301 303 302 300 299 300 297 296 298 297 297 298 299 298 298 298 299 301 301 301 302 303 302
289 288 288 287 288 291 293 292 291 291 291 290 289 290 289 288 285 289 293 291 289 288 288 290 290 291 295 297 300 302 293 301 303 303 301 300 299 300 299 300 300 299 300 299 300 301 301 301 301 301 302 303 304 304
290 290 290 289 288 289 289 290 290 290 290 288 288 289 288 286 284 288 293 293 291 290 290 291 293 294 298 300 299 300 297 303 300 292 289 289 290 295 297 297 299 301 301 300 300 301 301 302 303 303 304 304 304 305
Wind_Speed
17 15 12 14 14 13 12 11 9 6 6 4 5 7 8 9 10 4 4 3 4 2 5 2 3 2 3 2 3 4 4 4 4 5 4 3 3 3 1 4 6 8 6 4 3 2 6 5 5 6 8 3 0 1
16 15 16 16 14 13 12 11 9 8 6 5 4 6 7 9 10 6 2 2 0 3 5 3 6 5 4 6 5 2 5 2 3 5 1 3 2 2 3 3 2 2 7 6 9 8 4 4 5 5 6 3 2 2
18 16 16 16 16 14 12 11 10 8 7 5 4 5 7 9 10 7 2 4 3 3 6 3 6 3 2 3 4 4 2 2 1 2 4 2 3 4 4 5 1 4 3 2 2 2 4 4 2 3 4 3 2 1
16 15 15 15 15 14 12 11 11 8 6 5 4 5 6 8 10 8 1 2 2 3 2 7 3 3 4 3 3 4 6 4 4 3 3 2 3 3 4 4 4 5 1 2 1 3 2 4 2 3 3 2 2 2
15 15 14 13 13 13 12 13 10 8 7 5 5 5 6 9 10 3 2 2 1 4 3 5 6 3 1 6 7 6 5 4 3 3 3 3 1 3 2 3 3 4 7 5 7 5 5 4 1 2 4 4 5 5
13 14 14 12 11 10 11 11 10 8 6 4 5 5 6 8 9 2 4 1 3 1 3 2 4 3 2 4 8 6 3 3 3 4 2 3 3 5 3 5 7 3 2 6 5 4 2 4 5 2 5 4 4 4
12 11 9 12 12 11 10 8 8 7 5 4 4 6 7 7 2 3 5 4 4 1 3 3 5 4 3 4 3 3 3 2 3 2 1 2 2 4 3 6 5 7 5 5 4 8 4 1 4 5 6 4 4 3
8 11 10 8 11 12 11 9 7 6 4 4 5 6 8 8 3 3 3 2 4 4 3 2 4 2 2 1 1 1 2 3 2 2 1 2 2 2 4 8 8 6 7 6 7 2 7 7 6 5 4 3 7 6
10 6 7 9 10 11 10 9 7 5 3 4 6 8 3 2 2 3 2 6 2 4 3 2 4 5 2 1 2 3 2 1 2 2 3 4 1 5 9 9 7 7 9 8 7 7 8 9 7 6 7 7 7 5
13 12 10 10 10 10 9 7 5 3 3 4 1 1 1 3 4 2 6 4 4 3 3 3 1 3 3 1 1 3 2 3 2 6 3 3 5 6 7 8 6 7 9 12 9 5 6 5 6 5 6 4 4 1
13 10 11 13 11 9 8 6 4 1 1 1 1 1 3 1 3 3 1 2 1 1 2 4 5 2 1 4 4 3 4 2 2 5 5 2 5 7 8 8 7 4 11 8 7 6 7 9 8 7 5 4 4 5
13 10 9 10 9 8 6 4 3 2 2 3 1 2 1 3 3 3 2 2 3 6 3 4 5 5 1 3 3 2 4 2 6 2 3 3 7 7 2 6 8 9 9 9 10 12 9 9 7 7 5 3 3 4
12 10 8 9 9 10 6 4 2 4 3 1 1 3 3 2 3 6 6 3 2 2 1 1 1 3 2 3 3 2 4 6 2 2 5 6 4 4 2 6 7 8 12 12 9 9 9 8 6 6 6 3 5 6
9 11 9 8 9 8 5 3 2 2 1 3 3 2 3 1 3 4 2 1 4 1 3 2 2 3 2 3 2 3 5 2 2 1 6 2 4 6 4 6 12 11 12 13 11 9 10 8 6 6 5 3 2 4
12 12 8 6 9 6 5 4 4 3 2 2 3 3 3 1 2 2 3 3 2 1 2 1 3 3 1 3 3 1 2 5 5 5 2 4 8 5 2 3 8 8 8 8 6 6 7 6 6 4 3 2 1 2
11 7 3 10 10 7 4 4 4 1 2 3 3 2 2 2 3 2 2 2 3 2 1 3 2 2 3 2 3 6 3 4 2 2 3 4 6 3 6 6 4 6 7 6 6 4 4 6 4 3 3 2 1 2
5 2 8 9 10 7 6 3 3 3 3 2 1 2 2 2 4 3 1 1 2 3 2 2 2 1 3 1 3 3 2 2 2 2 2 2 4 7 9 8 6 4 5 6 5 2 2 1 2 1 5 3 4 1
1 4 13 11 5 4 3 3 2 2 1 3 1 3 2 3 2 3 1 1 2 2 1 2 3 3 1 2 2 1 1 0 2 2 2 2 2 5 5 6 6 6 5 4 3 4 2 2 3 2 4 2 1 0
4 9 13 11 3 3 3 2 2 2 4 2 3 2 2 3 3 3 1 1 0 2 5 2 3 2 2 1 2 2 2 2 1 2 2 0 1 2 5 7 6 7 12 9 4 2 2 3 4 2 3 2 2 2
11 10 7 5 3 2 3 2 2 2 3 3 1 2 3 3 2 2 1 3 3 3 2 3 4 4 4 5 4 2 5 3 1 2 2 2 2 5 5 4 3 2 5 5 3 3 1 1 1 3 2 2 2 3
5 1 2 3 2 0 1 1 2 4 2 1 1 1 3 1 2 2 2 3 3 3 3 4 4 4 6 6 4 4 6 4 4 5 5 2 3 5 4 4 6 3 10 5 3 4 1 3 4 3 3 2 1 3
1 4 1 0 1 2 2 2 2 2 1 2 2 1 2 2 2 4 3 2 4 5 5 5 5 6 6 6 7 7 9 8 7 4 6 3 3 3 4 6 7 8 9 10 9 5 5 4 4 4 4 2 2 3
4 1 1 1 1 3 5 2 2 3 1 3 3 2 2 3 4 2 2 4 5 4 4 3 4 4 6 6 4 5 5 7 6 6 7 6 6 6 5 5 5 7 7 6 4 5 5 4 6 4 4 3 2 2
1 1 1 1 3 3 2 2 1 2 2 2 2 3 3 4 0 1 3 1 2 3 4 4 4 4 4 3 1 2 2 1 3 4 5 5 5 6 7 8 7 7 7 6 3 4 4 4 5 4 4 4 4 4
3 4 4 4 2 1 1 2 1 1 3 2 1 3 4 1 1 2 2 2 1 1 2 2 2 1 2 4 4 4 3 2 3 5 4 2 4 4 4 4 5 6 4 4 4 5 5 4 6 5 5 6 7 7
1 2 4 2 2 2 3 2 3 4 3 3 5 4 1 1 2 3 1 2 1 3 3 3 3 7 7 4 7 8 8 3 3 5 7 4 5 4 5 4 4 6 6 7 6 6 6 7 7 8 8 8 7 7
2 3 3 3 2 1 3 3 3 3 4 4 2 3 2 2 3 1 2 1 2 2 3 4 5 8 10 9 9 8 8 7 7 8 6 5 4 4 4 5 6 6 2 3 4 6 7 8 9 10 9 6 8 8
4 2 2 3 3 3 4 3 2 1 2 3 2 2 1 2 1 2 1 2 4 6 6 6 6 7 8 8 8 8 9 9 10 9 8 9 9 8 10 8 8 12 8 4 5 5 6 7 10 10 11 11 8 8
3 3 2 4 3 2 1 1 2 2 2 2 2 2 2 2 2 3 3 4 6 7 7 8 8 6 7 8 9 9 9 9 10 13 13 11 9 9 9 10 10 9 8 6 6 6 8 7 10 11 12 10 9 7
3 1 2 3 2 1 2 3 1 1 1 1 1 2 2 2 2 2 3 6 8 8 8 9 10 8 9 9 9 10 9 10 10 11 11 11 12 7 5 8 8 9 8 8 6 3 1 4 5 5 7 6 7 6
1 1 2 1 2 2 2 2 0 2 2 2 2 2 3 2 2 2 3 7 8 8 8 9 10 9 9 10 9 10 9 7 10 12 13 9 8 5 5 5 5 5 7 10 9 8 7 6 7 9 10 10 11 10
1 1 3 1 2 2 2 1 3 3 1 3 3 3 3 2 3 2 3 7 9 11 14 12 11 13 14 12 12 9 9 8 8 7 11 9 9 8 7 7 7 5 6 7 8 9 13 12 9 9 8 10 11 11
1 2 3 1 1 2 2 1 3 3 2 1 1 2 3 4 3 3 4 4 8 9 11 13 13 13 14 14 13 11 10 6 7 8 5 5 4 4 3 5 4 7 10 8 8 9 12 13 11 11 11 10 9 7
Wind_Direction
180 180 185 196 204 214 221 229 237 256 262 290 324 337 340 343 350 23 270 230 136 171 276 303 338 58 15 67 123 277 40 337 39 68 117 194 148 241 123 206 180 179 161 209 104 135 271 167 80 166 217 228 195 119
185 178 192 195 199 209 215 221 234 247 252 276 307 330 339 345 347 6 291 332 305 141 242 301 272 259 241 186 140 14 163 205 202 91 111 109 140 67 137 265 357 261 185 185 170 213 253 241 187 182 173 142 160 144
190 189 191 193 193 200 210 213 220 230 239 261 287 317 335 342 345 354 269 299 38 59 315 13 249 297 115 162 172 111 290 203 12 156 153 151 129 126 161 240 278 320 162 127 94 299 275 249 233 190 174 139 135 100
187 191 192 196 195 191 206 211 215 217 230 253 282 304 329 335 342 356 288 291 89 110 139 281 322 248 152 136 97 102 133 63 89 60 91 127 147 169 195 203 156 206 81 169 288 284 338 20 117 148 123 110 97 106
183 184 182 187 192 192 196 201 208 213 236 246 278 297 323 334 336 326 234 262 232 133 208 277 304 321 32 119 94 71 82 84 66 46 61 226 211 100 360 52 287 197 188 156 217 215 161 220 109 114 99 94 87 92
179 180 182 181 182 181 176 190 199 211 220 249 278 307 323 334 347 46 22 314 357 124 85 334 293 288 96 106 103 95 98 90 86 129 210 281 271 105 130 213 250 250 203 168 188 182 187 98 63 54 104 98 122 113
166 168 172 182 184 180 187 191 184 200 208 249 284 305 316 326 51 138 188 232 12 351 91 313 320 305 144 82 34 67 41 82 109 134 204 184 281 93 155 219 248 212 234 196 185 117 72 126 148 109 106 79 64 46
171 174 170 179 179 181 186 189 192 196 218 254 284 299 306 307 302 337 281 308 143 89 76 158 267 355 150 104 83 14 83 31 2 183 61 183 1 70 246 242 246 219 209 213 191 236 154 126 99 95 74 68 53 27
187 200 202 205 195 176 179 188 190 201 225 263 286 296 14 42 85 235 269 113 75 124 169 146 164 219 28 106 110 32 89 87 305 190 242 107 197 225 227 226 232 219 177 167 118 120 116 116 125 100 97 68 70 15
186 183 166 154 143 141 143 156 173 205 245 292 318 102 26 230 241 64 11 32 14 341 51 211 189 252 99 99 115 98 16 192 175 240 109 143 247 252 244 222 223 225 170 141 116 126 126 126 126 111 95 105 105 27
153 157 153 147 143 144 146 157 171 252 332 102 144 132 244 267 69 45 84 124 225 288 200 235 184 185 281 129 181 190 185 177 173 255 149 212 270 245 225 208 207 175 160 167 136 122 143 133 133 116 93 70 48 18
130 144 149 137 142 146 148 161 148 79 199 201 201 277 311 50 58 121 218 308 182 220 225 177 216 196 250 101 107 215 179 104 229 144 132 215 251 251 220 191 184 163 146 124 126 122 121 116 120 114 105 83 32 344
135 127 120 135 140 135 125 122 153 266 302 152 146 77 76 318 71 165 186 244 245 249 286 205 144 154 32 57 77 121 172 224 83 136 214 224 263 285 229 145 125 125 125 124 126 120 124 120 119 109 94 53 23 8
140 147 137 119 124 122 110 102 40 350 37 85 103 83 158 269 239 188 196 233 264 284 309 198 135 148 162 102 138 159 234 102 229 206 219 274 311 321 333 143 139 144 140 140 139 138 131 122 114 96 97 78 29 355
133 132 120 117 124 108 99 81 30 46 56 80 82 155 192 274 275 255 266 302 279 317 357 84 54 100 132 144 193 120 196 237 198 213 251 299 299 295 128 128 127 130 131 129 130 120 129 134 116 128 150 144 300 342
120 101 84 122 117 110 65 31 28 27 47 46 52 49 296 22 324 347 346 315 305 328 15 24 114 130 193 185 152 216 196 207 202 264 296 317 342 62 97 58 74 114 125 124 107 141 141 124 158 204 169 206 240 317
96 102 148 127 110 89 21 58 22 46 36 34 359 260 211 242 234 261 217 295 316 43 69 48 73 62 306 214 216 34 126 184 243 289 286 326 23 44 65 66 60 52 103 124 116 87 58 192 60 246 247 240 212 252
52 153 134 117 99 48 18 24 73 98 269 234 242 282 195 231 244 272 269 299 80 106 91 100 12 24 300 356 23 355 33 279 275 291 311 342 64 66 67 67 41 28 3 307 165 156 205 291 350 253 266 220 170 338
110 131 129 160 180 119 113 343 64 247 239 210 236 234 232 253 236 252 283 234 287 117 111 109 148 229 207 323 355 15 313 248 254 284 315 198 282 81 86 59 25 8 328 285 241 182 195 258 267 215 168 164 225 244
95 98 115 54 33 78 125 161 150 210 257 235 231 231 199 211 228 207 194 163 140 127 125 179 200 214 179 174 196 166 258 257 223 290 245 217 150 143 107 97 61 302 281 309 259 187 175 38 249 165 175 204 212 258
80 112 53 36 353 173 281 176 222 213 242 216 256 198 263 328 227 185 222 134 98 187 208 210 210 230 193 192 212 214 240 222 224 203 222 246 219 172 170 130 100 21 315 294 285 301 297 234 225 177 191 213 232 241
135 115 49 307 295 192 258 226 197 278 76 247 322 213 252 258 240 224 155 134 208 219 195 192 208 212 237 242 237 203 227 230 236 239 270 243 239 227 220 208 172 181 194 251 263 245 240 228 195 189 183 180 213 248
108 65 302 251 10 44 267 41 33 351 359 289 338 285 251 250 232 112 193 207 232 230 211 214 255 211 216 248 226 243 237 235 244 240 240 230 223 222 213 224 203 216 219 236 218 226 227 210 200 188 164 169 171 225
185 33 338 310 132 270 346 344 10 343 306 296 266 274 253 231 194 132 231 248 7 8 45 36 24 1 349 10 7 269 290 286 284 287 258 240 234 240 221 230 227 214 210 225 210 214 208 203 186 182 168 165 182 191
52 306 98 312 254 338 283 300 253 300 262 234 259 279 260 88 203 255 229 122 116 16 14 5 3 333 272 271 270 261 220 194 269 274 271 245 262 268 263 237 234 222 193 186 207 196 206 172 197 189 179 176 191 189
48 259 149 243 211 190 228 219 216 230 232 241 230 255 333 174 218 245 120 98 33 341 337 328 317 312 291 242 277 283 284 216 206 251 271 257 254 236 252 247 254 268 196 197 180 190 198 193 194 186 191 193 197 184
341 281 237 228 223 236 286 265 243 193 234 224 265 338 359 268 242 90 81 95 303 285 273 285 283 282 283 283 277 274 270 267 248 252 251 244 228 221 219 228 236 242 108 142 172 187 194 191 200 199 201 182 187 198
247 278 254 288 263 207 219 250 272 352 40 349 15 342 245 243 303 19 308 1 313 304 287 281 266 261 265 269 268 270 270 268 267 261 255 253 241 231 234 234 238 255 266 229 195 207 205 190 199 204 195 192 191 197
260 260 266 269 274 281 250 76 40 27 37 12 303 297 307 302 312 338 356 346 348 324 315 309 301 289 277 268 260 253 248 245 244 244 241 247 251 236 212 218 222 226 226 238 245 225 235 204 200 197 193 184 181 173
265 235 289 298 282 307 41 59 18 9 190 275 259 284 272 308 3 36 5 341 328 319 305 295 289 289 280 276 272 266 246 236 236 232 239 240 240 255 200 202 209 215 206 199 207 213 124 126 112 127 148 151 163 161
180 333 289 270 305 45 58 276 81 86 352 10 29 322 347 326 328 354 354 327 317 307 304 309 315 312 305 306 292 282 277 255 238 231 224 234 241 231 221 224 221 205 198 195 181 182 172 161 168 158 172 174 180 182
257 342 342 273 273 282 324 150 170 178 155 14 358 349 346 316 322 299 312 332 334 339 332 328 326 317 312 303 300 294 269 272 259 233 228 219 228 238 239 237 225 186 173 164 167 171 167 167 160 160 171 175 177 173
274 190 201 228 267 257 230 158 193 178 113 6 12 10 19 350 342 307 307 335 330 321 322 320 319 316 317 323 322 321 313 287 247 238 235 157 212 232 248 262 191 167 151 150 157 162 165 158 151 153 163 158 164 177